Regional Weather Roundup
Issued by NWS

Home | Current Version | Previous Version | Text Only | Print | Product List | Glossary On
Versions: 1 2 3 4 5 6 7 8 9 10 11 12 13 14 15 16 17 18 19 20 21 22 23 24 25 26 27 28 29 30 31 32 33 34 35 36 37 38 39 40 41 42 43 44 45 46 47 48 49 50
000
ASUS43 KBIS 020710
RWRND

NORTH DAKOTA REGIONAL WEATHER ROUNDUP
NATIONAL WEATHER SERVICE BISMARCK ND
200 AM CDT SUN AUG 02 2015

NOTE: "FAIR" INDICATES FEW OR NO CLOUDS BELOW 12,000 FEET WITH NO
SIGNIFICANT WEATHER AND/OR OBSTRUCTIONS TO VISIBILITY.


NDZ001>003-009>011-017-020800-
NORTHWEST NORTH DAKOTA

CITY           SKY/WX    TMP DP  RH WIND       PRES   REMARKS
WILLISTON      CLEAR     64  54  69 N6        29.88R
MINOT          CLEAR     63  58  83 NW10      29.80R
MINOT AFB      CLEAR     64  62  91 NW10      29.79R
$$

NDZ018>021-031>035-040>046-020800-
SOUTHWEST NORTH DAKOTA

CITY           SKY/WX    TMP DP  RH WIND       PRES   REMARKS
BISMARCK       CLEAR     69  53  56 W13       29.75R
DICKINSON      CLEAR     64  53  67 N7        29.87R
GARRISON         N/A     66  54  65 N8        29.79R
HETTINGER ARPT CLEAR     56  44  64 CALM      29.87S
$$

NDZ004>008-012>016-024-026-027-054-020800-
NORTHEAST NORTH DAKOTA

CITY           SKY/WX    TMP DP  RH WIND       PRES   REMARKS
GRAND FORKS    PTCLDY    68  62  81 N13       29.69R
GRND FRKS AFB  FAIR      68  61  79 N9        29.70S
DEVILS LAKE    PTCLDY    66  55  68 NE14      29.71S
$$

NDZ022-023-025-028>030-036>039-047>053-020800-
SOUTHEAST NORTH DAKOTA

CITY           SKY/WX    TMP DP  RH WIND       PRES   REMARKS
FARGO          PTCLDY    69  65  86 S3        29.65S
JAMESTOWN      CLEAR     68  65  90 S9        29.65F
$$




USA.gov is the U.S. government's official web portal to all federal, state and local government web resources and services.